Location: Alphen aan den Rijn
(52.1277°N, 4.6689°E)
Time: 03:00:35
(UTC+01:00)

Envisat - Visible Passes

Search period start: 25 February 2018 00:00
Search period end: 07 March 2018 00:00
Orbit: 764 x 766 km, 98.2° (Epoch: 24 February)

Date Brightness Start Highest point End Pass type
(mag) Time Alt. Az. Time Alt. Az. Time Alt. Az.
25 Feb 3.4 19:09:01 10° SE 19:13:44 40° ENE 19:18:29 10° N visible
25 Feb 4.5 20:48:11 10° SSW 20:52:50 35° W 20:57:30 10° NNW visible
26 Feb 3.3 20:10:52 10° S 20:15:55 69° WSW 20:21:02 10° NNW visible
26 Feb 5.9 21:54:17 10° WSW 21:55:55 11° W 21:57:33 10° WNW visible
27 Feb 3.0 19:34:12 10° SSE 19:39:12 63° ENE 19:44:15 10° N visible
27 Feb 5.2 21:14:42 10° SW 21:18:40 23° W 21:22:39 10° NW visible
28 Feb 3.7 18:58:09 10° SE 19:02:40 34° ENE 19:07:14 10° N visible
28 Feb 4.1 20:36:47 10° S 20:41:37 43° W 20:46:28 10° NNW visible
01 Mar 3.0 19:59:40 10° SSE 20:04:46 83° WSW 20:09:54 10° NNW visible
01 Mar 5.8 21:41:56 10° WSW 21:44:36 14° W 21:47:17 10° NW visible
02 Mar 3.2 19:23:11 10° SE 19:28:06 52° ENE 19:33:03 10° N visible
02 Mar 5.0 21:03:07 10° SSW 21:07:24 27° W 21:11:44 10° NW visible
03 Mar 3.8 20:25:28 10° S 20:30:25 52° W 20:35:25 10° NNW visible
04 Mar 2.9 19:48:33 10° SSE 19:53:38 82° ENE 19:58:45 10° NNW visible
04 Mar 5.6 21:29:58 10° SW 21:33:18 17° W 21:36:39 10° NW visible
05 Mar 3.4 19:12:14 10° SE 19:17:01 43° ENE 19:21:50 10° N visible
05 Mar 4.6 20:51:36 10° SSW 20:56:10 33° W 21:00:46 10° NNW visible
06 Mar 3.4 20:14:12 10° S 20:19:14 64° WSW 20:24:19 10° NNW visible
06 Mar 6.0 21:58:26 10° W 21:59:19 10° W 22:00:11 10° WNW visible
